Big Bear Station Historical Data
Daily Summary for September 30, 2017 Units:  English    Metric   Both
« Previous Day
Next Day »
Daily Weekly Monthly Yearly Custom
  High: Low: Average:
Temperature: 70.2 °F 41.2 °F 53.4 °F
Dew Point: 40.6 °F 27.6 °F 34.3 °F
Humidity: 80 % 25 % 52 %
Wind Speed: 7.3 mph 0.0 mph 1.4 mph
Wind Gust: -999.0 mph - -
Wind:- - WSW
Pressure: 30.16 in 30.07 in -
Precipitation: 0.00 in    
Historical Graphs
 
 
Tabular Data for September 30, 2017
Time Temperature Dew Point Pressure Wind Wind Speed Wind Gust Humidity Rainfall Rate (Hourly)
00:03 44.1 °F 33.8 °F 30.16 in Calm   -999.0 mph 67 % 0 in
00:19 43.7 °F 33.1 °F 30.16 in Calm   -999.0 mph 66 % 0 in
00:34 43.3 °F 33.8 °F 30.16 in Calm   -999.0 mph 69 % 0 in
00:49 42.8 °F 33.7 °F 30.16 in Calm   -999.0 mph 70 % 0 in
01:04 42.6 °F 33.9 °F 30.15 in Calm   -999.0 mph 71 % 0 in
01:20 42.6 °F 33.9 °F 30.15 in Calm   -999.0 mph 71 % 0 in
01:35 42.6 °F 33.1 °F 30.15 in Calm   -999.0 mph 69 % 0 in
01:50 42.4 °F 35.0 °F 30.15 in Calm   -999.0 mph 75 % 0 in
02:05 42.3 °F 35.9 °F 30.15 in Calm   -999.0 mph 78 % 0 in
02:21 42.1 °F 35.4 °F 30.14 in Calm   -999.0 mph 77 % 0 in
02:36 41.7 °F 35.0 °F 30.14 in Calm   -999.0 mph 77 % 0 in
02:51 41.5 °F 32.4 °F 30.14 in Calm   -999.0 mph 70 % 0 in
03:06 41.5 °F 34.2 °F 30.13 in Calm   -999.0 mph 75 % 0 in
03:21 41.5 °F 34.8 °F 30.13 in Calm   -999.0 mph 77 % 0 in
03:37 41.2 °F 34.2 °F 30.13 in Calm   -999.0 mph 76 % 0 in
03:52 42.1 °F 36.4 °F 30.13 in Calm   -999.0 mph 80 % 0 in
04:07 42.1 °F 35.4 °F 30.13 in Calm   -999.0 mph 77 % 0 in
04:22 41.5 °F 31.7 °F 30.12 in Calm   -999.0 mph 68 % 0 in
04:37 42.3 °F 34.6 °F 30.12 in Calm   -999.0 mph 74 % 0 in
04:53 42.1 °F 34.4 °F 30.12 in Calm   -999.0 mph 74 % 0 in
05:08 42.6 °F 34.6 °F 30.12 in Calm   -999.0 mph 73 % 0 in
05:23 42.4 °F 35.0 °F 30.12 in Calm   -999.0 mph 75 % 0 in
05:38 42.1 °F 35.1 °F 30.13 in Calm   -999.0 mph 76 % 0 in
05:53 42.1 °F 31.2 °F 30.13 in Calm   -999.0 mph 65 % 0 in
06:09 42.8 °F 29.0 °F 30.13 in Calm   -999.0 mph 58 % 0 in
06:24 42.6 °F 27.6 °F 30.13 in Calm   -999.0 mph 55 % 0 in
06:39 43.2 °F 32.6 °F 30.13 in Calm   -999.0 mph 66 % 0 in
06:54 43.0 °F 29.2 °F 30.14 in Calm   -999.0 mph 58 % 0 in
07:09 43.5 °F 31.7 °F 30.13 in Calm   -999.0 mph 63 % 0 in
07:25 43.0 °F 30.1 °F 30.13 in Calm   -999.0 mph 60 % 0 in
07:40 44.2 °F 33.6 °F 30.14 in Calm   -999.0 mph 66 % 0 in
07:55 45.1 °F 32.9 °F 30.13 in Calm   -999.0 mph 62 % 0 in
08:10 48.7 °F 32.8 °F 30.14 in South 2.2 mph -999.0 mph 54 % 0 in
08:26 50.7 °F 32.2 °F 30.14 in Calm   -999.0 mph 49 % 0 in
08:41 52.7 °F 31.9 °F 30.13 in SSW 1.1 mph -999.0 mph 45 % 0 in
08:56 55.0 °F 34.0 °F 30.14 in Calm   -999.0 mph 45 % 0 in
09:11 57.0 °F 31.0 °F 30.14 in NNE 4.2 mph -999.0 mph 37 % 0 in
09:26 57.6 °F 32.2 °F 30.14 in SW 2.7 mph -999.0 mph 38 % 0 in
09:42 59.2 °F 30.1 °F 30.15 in NW 1.7 mph -999.0 mph 33 % 0 in
09:57 60.3 °F 29.5 °F 30.15 in ESE 2.2 mph -999.0 mph 31 % 0 in
10:12 61.0 °F 29.3 °F 30.15 in SW 2.2 mph -999.0 mph 30 % 0 in
10:27 62.2 °F 32.0 °F 30.15 in West 2.2 mph -999.0 mph 32 % 0 in
10:42 63.9 °F 31.0 °F 30.15 in WNW 3.7 mph -999.0 mph 29 % 0 in
10:58 65.7 °F 31.7 °F 30.15 in SW 2.7 mph -999.0 mph 28 % 0 in
11:13 66.9 °F 31.8 °F 30.15 in North 5.3 mph -999.0 mph 27 % 0 in
11:29 68.0 °F 31.8 °F 30.15 in WNW 1.7 mph -999.0 mph 26 % 0 in
11:44 67.6 °F 30.5 °F 30.14 in NNW 3.2 mph -999.0 mph 25 % 0 in
11:59 67.3 °F 32.2 °F 30.14 in SW 1.1 mph -999.0 mph 27 % 0 in
12:15 67.3 °F 30.3 °F 30.14 in NNW 3.2 mph -999.0 mph 25 % 0 in
12:30 68.5 °F 34.1 °F 30.14 in NW 4.2 mph -999.0 mph 28 % 0 in
12:45 68.5 °F 34.1 °F 30.13 in WNW 6.3 mph -999.0 mph 28 % 0 in
13:01 68.9 °F 34.4 °F 30.13 in West 4.2 mph -999.0 mph 28 % 0 in
13:31 68.9 °F 34.4 °F 30.12 in NNW 6.8 mph -999.0 mph 28 % 0 in
13:46 68.7 °F 33.4 °F 30.11 in SW 2.7 mph -999.0 mph 27 % 0 in
14:02 70.2 °F 33.7 °F 30.11 in West 2.7 mph -999.0 mph 26 % 0 in
14:17 66.9 °F 32.7 °F 30.11 in WNW 6.3 mph -999.0 mph 28 % 0 in
14:32 66.9 °F 32.7 °F 30.10 in NW 6.8 mph -999.0 mph 28 % 0 in
14:47 67.5 °F 34.1 °F 30.10 in NNW 2.7 mph -999.0 mph 29 % 0 in
15:02 67.3 °F 33.9 °F 30.10 in NNW 7.3 mph -999.0 mph 29 % 0 in
15:18 66.6 °F 34.2 °F 30.10 in South 2.2 mph -999.0 mph 30 % 0 in
15:33 65.5 °F 34.1 °F 30.10 in SW 1.1 mph -999.0 mph 31 % 0 in
15:48 65.7 °F 35.0 °F 30.09 in West 1.7 mph -999.0 mph 32 % 0 in
16:03 64.4 °F 33.9 °F 30.09 in South 2.2 mph -999.0 mph 32 % 0 in
16:19 64.0 °F 34.3 °F 30.09 in NNE 1.1 mph -999.0 mph 33 % 0 in
16:34 64.0 °F 35.1 °F 30.09 in SE 2.2 mph -999.0 mph 34 % 0 in
16:49 62.6 °F 34.6 °F 30.08 in South 2.7 mph -999.0 mph 35 % 0 in
17:04 63.0 °F 34.9 °F 30.08 in WSW 3.7 mph -999.0 mph 35 % 0 in
17:20 62.2 °F 34.2 °F 30.08 in West 2.7 mph -999.0 mph 35 % 0 in
17:35 60.3 °F 33.2 °F 30.08 in North 5.8 mph -999.0 mph 36 % 0 in
17:50 59.4 °F 35.1 °F 30.08 in WSW 2.7 mph -999.0 mph 40 % 0 in
18:05 58.5 °F 35.5 °F 30.07 in Calm   -999.0 mph 42 % 0 in
18:20 57.4 °F 36.8 °F 30.07 in NE 3.2 mph -999.0 mph 46 % 0 in
18:36 56.7 °F 37.7 °F 30.07 in West 2.2 mph -999.0 mph 49 % 0 in
18:51 55.6 °F 37.8 °F 30.08 in Calm   -999.0 mph 51 % 0 in
19:06 54.7 °F 39.3 °F 30.08 in ENE 1.1 mph -999.0 mph 56 % 0 in
19:21 54.0 °F 39.1 °F 30.07 in Calm   -999.0 mph 57 % 0 in
19:37 53.4 °F 39.9 °F 30.07 in Calm   -999.0 mph 60 % 0 in
19:52 53.2 °F 40.1 °F 30.07 in NNW 2.7 mph -999.0 mph 61 % 0 in
20:07 52.9 °F 40.2 °F 30.08 in NNW 4.7 mph -999.0 mph 62 % 0 in
20:22 52.3 °F 40.1 °F 30.09 in Calm   -999.0 mph 63 % 0 in
20:38 50.7 °F 39.8 °F 30.09 in Calm   -999.0 mph 66 % 0 in
20:53 50.5 °F 39.6 °F 30.09 in Calm   -999.0 mph 66 % 0 in
21:08 50.4 °F 39.9 °F 30.09 in Calm   -999.0 mph 67 % 0 in
21:23 50.2 °F 40.4 °F 30.09 in Calm   -999.0 mph 69 % 0 in
21:39 50.4 °F 40.6 °F 30.09 in Calm   -999.0 mph 69 % 0 in
21:54 49.8 °F 40.4 °F 30.09 in Calm   -999.0 mph 70 % 0 in
22:09 49.5 °F 39.4 °F 30.09 in Calm   -999.0 mph 68 % 0 in
22:24 49.5 °F 38.2 °F 30.09 in Calm   -999.0 mph 65 % 0 in
22:39 49.5 °F 36.6 °F 30.08 in Calm   -999.0 mph 61 % 0 in
22:55 49.1 °F 33.2 °F 30.08 in Calm   -999.0 mph 54 % 0 in
23:10 49.8 °F 34.7 °F 30.08 in Calm   -999.0 mph 56 % 0 in
23:25 49.6 °F 34.1 °F 30.08 in Calm   -999.0 mph 55 % 0 in
23:40 48.2 °F 34.1 °F 30.08 in Calm   -999.0 mph 58 % 0 in
23:55 47.5 °F 33.0 °F 30.08 in Calm   -999.0 mph 57 % 0 in
Big Bear CA Weather
Compliments of Weather Underground - 1.5 mb